National Weather Service Raw Text Product

Displaying AFOS PIL: RWRIA Received: 2018-07-12 11:00 UTC


481 
ASUS43 KDMX 121106
RWRIA 

WEATHER ROUNDUP FOR IOWA
NATIONAL WEATHER SERVICE DES MOINES IA
600 AM CDT THU JUL 12 2018

NOTE: "FAIR" INDICATES FEW OR NO CLOUDS BELOW 12,000 FEET WITH NO
SIGNIFICANT WEATHER AND/OR OBSTRUCTIONS TO VISIBILITY.

* - THESE STATIONS ARE NOT NWS STATIONS...THUS NOT UNDER NWS
QUALITY CONTROL.  THEY ALSO DO NOT REPORT WEATHER SUCH 
AS PRECIPITATION OR FOG.  

IAZ001>003-012>014-020>022-031>034-043>046-121200-
   NORTHWEST IOWA
  
CITY           SKY/WX    TMP DP  RH WIND       PRES   REMARKS
CARROLL *      CLEAR     73  70  88 S7        30.03R                  
CHEROKEE *     CLEAR     74  72  91 S6        30.00R                  
DENISON *      CLEAR     73  70  88 CALM      30.03S                  
LE MARS *      CLEAR     75  72  88 S6        29.98R                  
ORANGE CITY *  CLEAR     75  72  88 S7        29.99R                  
SHELDON *      CLEAR     75  73  94 S9        29.97R                  
SIOUX CITY     CLEAR     75  71  87 S7        29.98R                  
STORM LAKE *   CLEAR     72  70  94 S6        30.02R                  
$$
 
IAZ055>058-069>071-079>083-090>094-121200-
   SOUTHWEST IOWA
  
CITY           SKY/WX    TMP DP  RH WIND       PRES   REMARKS
ATLANTIC *     CLEAR     73  68  83 S6        30.04R                  
AUDUBON *      CLEAR     75  68  78 S7        30.05S                  
CLARINDA *     CLEAR     73  68  83 S5        30.06S                  
COUNCIL BLFS * CLEAR     73  70  88 SE7       30.02F                  
CRESTON *      CLEAR     72  63  73 S9        30.07S                  
HARLAN  *        N/A     73  70  88 S6        30.03S                  
LAMONI         CLEAR     72  60  66 S8        30.07S                  
RED OAK *      CLEAR     73  70  88 S5        30.04R                  
SHENANDOAH *   CLEAR     73  70  88 CALM      30.04S                  
$$
 
IAZ047>049-059>061-072>074-084-121200-
   CENTRAL IOWA
  
CITY           SKY/WX    TMP DP  RH WIND       PRES   REMARKS
AMES           CLEAR     69  64  84 MISG      30.04S                  
ANKENY *       CLEAR     73  63  68 S3        30.06R                  
BOONE *        CLEAR     73  63  68 VRB7      30.04R                  
CHARITON *     CLEAR     70  63  78 S9        30.06S                  
DES MOINES     PTCLDY    73  62  68 S8        30.05R                  
GRINNELL*      CLEAR     70  64  80 S7        30.08S                  
KNOXVILLE *    CLEAR     72  63  73 S6        30.05S                  
MARSHALLTOWN   CLEAR     71  65  81 SE7       30.06R                  
NEWTON *       CLEAR     68  64  88 S6        30.07R                  
PELLA *        CLEAR     71  63  75 S5        30.08R                  
PERRY *        FAIR      72  67  86 MISG      30.04S                  
$$
 
IAZ004>006-015-016-023>025-035-036-121200-
   NORTH CENTRAL IOWA
  
CITY           SKY/WX    TMP DP  RH WIND       PRES   REMARKS
ALGONA *       CLEAR     73  66  78 S10       30.02R                  
CLARION *      CLEAR     72  64  78 S12       30.04R                  
ESTHERVILLE    CLEAR     72  70  93 S12       29.99R                  
FORT DODGE *   CLEAR     75  66  73 S12G20    30.03R                  
MASON CITY     CLEAR     70  63  78 S9        30.05R                  
FOREST CITY *  FAIR      72  64  78 S6        30.04R                  
WEBSTER CITY * CLEAR     72  64  78 S8        30.03R                  
IOWA FALLS *   FAIR      71  64  78 S8        30.07R                  
$$

IAZ007>011-017>019-026>030-037>042-050>054-066-121200-
   NORTHEAST IOWA
  
CITY           SKY/WX    TMP DP  RH WIND       PRES   REMARKS
CEDAR RAPIDS   FAIR      70  67  90 S12       30.10R                  
CHARLES CITY * MOCLDY    72  64  78 S12       30.07S                  
CLINTON *      FAIR      67  65  93 SE7       30.14R                  
DECORAH *      FAIR      72  66  83 S9        30.06S                  
DUBUQUE        FAIR      66  63  90 S8        30.12R                  
MONTICELLO *   FAIR      68  68 100 SE6       30.11R                  
OELWEIN *      FAIR      68  66  94 S7        30.10R                  
WATERLOO       FAIR      70  65  84 S8        30.06R                  
$$
 
IAZ064-065-067-068-078-121200-
   EAST CENTRAL IOWA
  
CITY           SKY/WX    TMP DP  RH WIND       PRES   REMARKS
DAVENPORT      FAIR      68  63  84 S7        30.14R                  
IOWA CITY      FAIR      68  66  93 SE5       30.12R                  
MT. PLEASANT * CLEAR     66  66 100 SE5       30.10S                  
MUSCATINE *    FAIR      66  64  94 CALM      30.11R                  
QUAD CITIES    FAIR      68  64  87 E3        30.12R                  
$$
 
IAZ062-063-075>077-085>089-095>099-121200-
   SOUTHEAST IOWA
  
CITY           SKY/WX    TMP DP  RH WIND       PRES   REMARKS
BURLINGTON     CLEAR     72  66  81 S8        30.10R                  
FAIRFIELD *    CLEAR     68  64  88 S3        30.08S                  
FORT MADISON * CLEAR     70  68  94 S5        30.11S                  
KEOKUK *       CLEAR     70  66  88 SE5       30.09S                  
OSKALOOSA *    FAIR      67  64  90 S7        30.08R                  
CENTERVILLE *    N/A     68  64  88 CALM      30.09F                  
OTTUMWA        CLEAR     71  65  81 S9        30.07S                  
WASHINGTON *   CLEAR     66  66 100 SE5       30.10S                  
$$

ABBREVIATIONS USED IN REMARKS
   TC - TEMPERATURES IN CELSIUS
  WCI - WIND CHILL INDEX
   HX - HEAT INDEX
  VSB - VISIBILITY  
$$

  

790 
ASUS43 KDMX 121101
RWRIA 

WEATHER ROUNDUP FOR IOWA
NATIONAL WEATHER SERVICE DES MOINES IA
600 AM CDT THU JUL 12 2018

NOTE: "FAIR" INDICATES FEW OR NO CLOUDS BELOW 12,000 FEET WITH NO
SIGNIFICANT WEATHER AND/OR OBSTRUCTIONS TO VISIBILITY.

* - THESE STATIONS ARE NOT NWS STATIONS...THUS NOT UNDER NWS
QUALITY CONTROL.  THEY ALSO DO NOT REPORT WEATHER SUCH 
AS PRECIPITATION OR FOG.  

IAZ001>003-012>014-020>022-031>034-043>046-121200-
   NORTHWEST IOWA
  
CITY           SKY/WX    TMP DP  RH WIND       PRES   REMARKS
CARROLL *      CLEAR     73  70  88 S7        30.03R                  
CHEROKEE *     CLEAR     74  72  91 S6        30.00R                  
DENISON *      CLEAR     73  70  88 CALM      30.03S                  
LE MARS *      CLEAR     75  72  88 S6        29.98R                  
ORANGE CITY *  CLEAR     75  72  88 S7        29.99R                  
SHELDON *      CLEAR     75  73  94 S9        29.97R                  
SIOUX CITY     CLEAR     75  71  87 S7        29.98R                  
STORM LAKE *   CLEAR     72  70  94 S6        30.02R                  
$$
 
IAZ055>058-069>071-079>083-090>094-121200-
   SOUTHWEST IOWA
  
CITY           SKY/WX    TMP DP  RH WIND       PRES   REMARKS
ATLANTIC *     CLEAR     73  68  83 S6        30.04R                  
AUDUBON *      CLEAR     75  68  78 S7        30.05S                  
CLARINDA *     CLEAR     73  68  83 S5        30.06S                  
COUNCIL BLFS * CLEAR     73  70  88 SE7       30.02F                  
CRESTON *      CLEAR     72  63  73 S9        30.07S                  
HARLAN  *        N/A     73  70  88 S6        30.03S                  
LAMONI         CLEAR     72  60  66 S8        30.07S                  
RED OAK *      CLEAR     73  70  88 S5        30.04R                  
SHENANDOAH *   CLEAR     73  70  88 CALM      30.04S                  
$$
 
IAZ047>049-059>061-072>074-084-121200-
   CENTRAL IOWA
  
CITY           SKY/WX    TMP DP  RH WIND       PRES   REMARKS
AMES           CLEAR     69  64  84 MISG      30.04S                  
ANKENY *       CLEAR     73  63  68 S3        30.06R                  
BOONE *        CLEAR     73  63  68 VRB7      30.04R                  
CHARITON *     CLEAR     70  63  78 S9        30.06S                  
DES MOINES     PTCLDY    73  62  68 S8        30.05R                  
GRINNELL*      CLEAR     70  64  80 S7        30.08S                  
KNOXVILLE *    CLEAR     72  63  73 S6        30.05S                  
MARSHALLTOWN   CLEAR     71  65  81 SE7       30.06R                  
NEWTON *       CLEAR     68  64  88 S6        30.07R                  
PELLA *        CLEAR     71  63  75 S5        30.08R                  
PERRY *        FAIR      72  67  86 MISG      30.04S                  
$$
 
IAZ004>006-015-016-023>025-035-036-121200-
   NORTH CENTRAL IOWA
  
CITY           SKY/WX    TMP DP  RH WIND       PRES   REMARKS
ALGONA *       CLEAR     73  66  78 S10       30.02R                  
CLARION *      CLEAR     72  64  78 S12       30.04R                  
ESTHERVILLE    CLEAR     72  70  93 S12       29.99R                  
FORT DODGE *   CLEAR     75  66  73 S12G20    30.03R                  
MASON CITY     CLEAR     70  63  78 S9        30.05R                  
FOREST CITY *  FAIR      72  64  78 S6        30.04R                  
IOWA FALLS *   FAIR      71  64  78 S8        30.07R                  
$$

IAZ007>011-017>019-026>030-037>042-050>054-066-121200-
   NORTHEAST IOWA
  
CITY           SKY/WX    TMP DP  RH WIND       PRES   REMARKS
CEDAR RAPIDS   FAIR      70  67  90 S12       30.10R                  
CHARLES CITY * MOCLDY    72  64  78 S12       30.07S                  
CLINTON *      FAIR      67  65  93 SE7       30.14R                  
DECORAH *      FAIR      72  66  83 S9        30.06S                  
DUBUQUE        FAIR      66  63  90 S8        30.12R                  
MONTICELLO *   FAIR      68  68 100 SE6       30.11R                  
OELWEIN *      FAIR      68  66  94 S7        30.10R                  
WATERLOO       FAIR      70  65  84 S8        30.06R                  
$$
 
IAZ064-065-067-068-078-121200-
   EAST CENTRAL IOWA
  
CITY           SKY/WX    TMP DP  RH WIND       PRES   REMARKS
DAVENPORT      FAIR      68  63  84 S7        30.14R                  
IOWA CITY      FAIR      68  66  93 SE5       30.12R                  
MUSCATINE *    FAIR      66  64  94 CALM      30.11R                  
QUAD CITIES    FAIR      68  64  87 E3        30.12R                  
$$
 
IAZ062-063-075>077-085>089-095>099-121200-
   SOUTHEAST IOWA
  
CITY           SKY/WX    TMP DP  RH WIND       PRES   REMARKS
BURLINGTON     CLEAR     72  66  81 S8        30.10R                  
FAIRFIELD *    CLEAR     68  64  88 S3        30.08S                  
FORT MADISON * CLEAR     70  68  94 S5        30.11S                  
KEOKUK *       CLEAR     70  66  88 SE5       30.09S                  
OSKALOOSA *    FAIR      67  64  90 S7        30.08R                  
CENTERVILLE *    N/A     68  64  88 CALM      30.09F                  
OTTUMWA        CLEAR     71  65  81 S9        30.07S                  
WASHINGTON *   CLEAR     66  66 100 SE5       30.10S                  
$$

ABBREVIATIONS USED IN REMARKS
   TC - TEMPERATURES IN CELSIUS
  WCI - WIND CHILL INDEX
   HX - HEAT INDEX
  VSB - VISIBILITY  
$$